Вернуться в каталог

FENGYUN 1C DEB

АктивенSSO
NORAD 30749·DEBRIS·🇨🇳 China

Запущен May 10, 1999 с Taiyuan Satellite Launch Center

Loading…

Ближайшие Пролёты (ближайшие 24 часа)

TLE

СвежийSource: Space-Track

Эпоха: Sep 13, 2026, 06:33 UTC

1 30749U 99025ATK 26256.27355053  .00000307  00000-0  23444-3 0  9999
2 30749  98.8599 279.7457 0057616 185.9573 174.0913 13.99895693998077

Отслеживайте FENGYUN 1C DEB в реальном времени с AllMySat

Download on the App Store